Hattiesburg, MS

4:03 AM CDT on September 30, 2016 (GMT -0500)
Chain Municipal

Weather History for KHBG - June, 2013

Change the Weather History Date:

Wednesday, June 26, 2013

  Actual Average Record
Temperature  
Mean Temperature 82 °F 81 °F  
Max Temperature 93 °F 91 °F 99 °F (2000)
Min Temperature 71 °F 70 °F 57 °F (1974)
Degree Days  
Heating Degree Days 0 0  
Month to date heating degree days 0 0  
Since 1 June heating degree days 0 0  
Since 1 July heating degree days 1864 1985  
Cooling Degree Days 17 16  
Month to date cooling degree days 400 359  
Year to date cooling degree days 742 774  
Since 1 June cooling degree days 400 359  
Growing Degree Days 31 (Base 50)    
Moisture  
Dew Point 72 °F    
Average Humidity 71    
Maximum Humidity 93    
Minimum Humidity 49    
Precipitation  
Precipitation 0.00 in 0.23 in 3.00 in (1993)
Month to date precipitation 4.50 4.60  
Year to date precipitation 41.71 31.14  
Sea Level Pressure  
Sea Level Pressure 30.02 in    
Wind  
Wind Speed 3 mph (WSW)    
Max Wind Speed 17 mph    
Max Gust Speed 26 mph    
Visibility 10 miles    
Events      
T = Trace of Precipitation, MM = Missing Value Source: NWS Daily Summary

Daily Weather History Graph

Daily Weather History Graph

Search for Another Location

Airport or City:

Trip Planner

Search our weather history database for the weather conditions in past years. The results will help you decide how hot, cold, wet, or windy it might be!

Date:

Astronomy

Jun. 26, 2013 Rise Set
Actual Time 5:54 AM CDT 8:05 PM CDT
Civil Twilight 5:26 AM CDT 8:33 PM CDT
Nautical Twilight 4:52 AM CDT 9:07 PM CDT
Astronomical Twilight 4:15 AM CDT 9:43 PM CDT
Moon 10:45 PM CDT (6/26) 9:31 AM CDT (6/26)
Length of Visible Light 15h 06m
Length of Day
14h 10m
Waning Gibbous, 85% of the Moon is Illuminated
Jun 26
Waning Gibbous
Jun 29
Last Quarter
Jul 8
New
Jul 15
First Quarter
Jul 22
Full

Hourly Weather History & Observations

Time (CDT) Temp. Heat Index Dew Point Humidity Pressure Visibility Wind Dir Wind Speed Gust Speed Precip Events Conditions
12:53 AM 77.0 °F - 71.1 °F 82% 30.02 in 10.0 mi Calm Calm - N/A   Clear
1:53 AM 75.0 °F - 71.1 °F 87% 30.01 in 10.0 mi Calm Calm - N/A   Clear
2:53 AM 73.9 °F - 71.1 °F 91% 30.00 in 10.0 mi Calm Calm - N/A   Clear
3:53 AM 73.0 °F - 71.1 °F 93% 30.01 in 10.0 mi Calm Calm - N/A   Clear
4:53 AM 73.9 °F - 71.1 °F 91% 30.02 in 10.0 mi Calm Calm - N/A   Clear
5:53 AM 71.1 °F - 70.0 °F 96% 30.04 in 10.0 mi Calm Calm - N/A   Partly Cloudy
6:53 AM 73.0 °F - 71.1 °F 93% 30.06 in 10.0 mi Calm Calm - N/A   Clear
7:53 AM 78.1 °F - 73.0 °F 84% 30.07 in 10.0 mi Calm Calm - N/A   Clear
8:53 AM 82.9 °F 88.8 °F 73.0 °F 72% 30.08 in 10.0 mi WNW 4.6 mph - N/A   Clear
9:53 AM 84.9 °F 91.4 °F 73.0 °F 67% 30.08 in 10.0 mi Variable 5.8 mph - N/A   Partly Cloudy
10:53 AM 87.1 °F 93.6 °F 72.0 °F 61% 30.06 in 10.0 mi WSW 6.9 mph - N/A   Partly Cloudy
11:53 AM 88.0 °F 93.8 °F 71.1 °F 57% 30.06 in 10.0 mi Calm Calm - N/A   Partly Cloudy
12:53 PM 90.0 °F 96.9 °F 72.0 °F 55% 30.05 in 10.0 mi West 5.8 mph - N/A   Partly Cloudy
1:53 PM 91.0 °F 97.6 °F 71.1 °F 52% 30.03 in 10.0 mi West 5.8 mph - N/A   Partly Cloudy
2:53 PM 91.9 °F 98.4 °F 71.1 °F 50% 30.01 in 10.0 mi Variable 3.5 mph 26.5 mph N/A   Partly Cloudy
3:53 PM 91.9 °F 96.9 °F 69.1 °F 47% 29.99 in 10.0 mi WNW 6.9 mph - N/A   Clear
4:53 PM 91.9 °F 96.9 °F 69.1 °F 47% 29.97 in 10.0 mi SW 6.9 mph - N/A   Partly Cloudy
5:53 PM 91.0 °F 96.6 °F 70.0 °F 50% 29.96 in 10.0 mi SW 4.6 mph - N/A   Mostly Cloudy
6:53 PM 90.0 °F 95.4 °F 70.0 °F 52% 29.96 in 10.0 mi West 3.5 mph - N/A   Clear
7:53 PM 86.0 °F 93.0 °F 73.0 °F 65% 29.96 in 10.0 mi Calm Calm - N/A   Clear
8:53 PM 82.9 °F 89.4 °F 73.9 °F 74% 29.96 in 10.0 mi SSW 4.6 mph - N/A   Clear
9:53 PM 82.0 °F 88.6 °F 75.0 °F 79% 29.98 in 10.0 mi South 5.8 mph - N/A   Clear
10:53 PM 80.1 °F 85.1 °F 75.0 °F 85% 30.01 in 10.0 mi South 5.8 mph - N/A   Clear
11:53 PM 79.0 °F - 75.0 °F 88% 30.01 in 10.0 mi South 6.9 mph - N/A   Clear